This is the latest recevied weather packets stored in our database for station/object XE1GMR. If no packets are shown the sender has not sent any weather packets the latest 10 day(s).
| Time | Temp. | Humidity | Pressure | Rain* | Wind** | Luminosity | Snow |
|---|---|---|---|---|---|---|---|
| 1777525808 | 20° C | 37% | 1121.4 hPa | 0 mm | - | 0 W/m² | - |
| 1777525505 | 21.11° C | 36% | 1121.5 hPa | 0 mm | - | 0 W/m² | - |
| 1777525201 | 21.11° C | 35% | 1121.5 hPa | 0 mm | - | 0 W/m² | - |
| 1777524898 | 21.11° C | 34% | 1121.6 hPa | 0 mm | - | 0 W/m² | - |
| 1777524595 | 21.11° C | 34% | 1121.5 hPa | 0 mm | - | 0 W/m² | - |
| 1777524293 | 20.56° C | 34% | 1121.6 hPa | 0 mm | - | 0 W/m² | - |
| 1777523989 | 20° C | 34% | 1121.7 hPa | 0 mm | - | 0 W/m² | - |
| 1777523685 | 20° C | 34% | 1121.5 hPa | 0 mm | - | 0 W/m² | - |
| 1777523382 | 20° C | 33% | 1121.5 hPa | 0 mm | - | 0 W/m² | - |
| 1777523078 | 20.56° C | 34% | 1121.3 hPa | 0 mm | - | 0 W/m² | - |
| 1777522775 | 20.56° C | 33% | 1121.6 hPa | 0 mm | - | 0 W/m² | - |
| 1777522471 | 20.56° C | 33% | 1121.5 hPa | 0 mm | - | 0 W/m² | - |
| 1777522169 | 20.56° C | 32% | 1121.5 hPa | 0 mm | - | 0 W/m² | - |
| 1777521865 | 21.11° C | 33% | 1121.4 hPa | 0 mm | - | 0 W/m² | - |
| 1777521562 | 21.11° C | 32% | 1121.5 hPa | 0 mm | - | 0 W/m² | - |
| 1777521260 | 21.11° C | 31% | 1121.6 hPa | 0 mm | - | 0 W/m² | - |
| 1777520956 | 21.11° C | 31% | 1121.6 hPa | 0 mm | - | 0 W/m² | - |
| 1777520653 | 21.11° C | 30% | 1121.4 hPa | 0 mm | - | 0 W/m² | - |
| 1777520349 | 21.67° C | 31% | 1121.4 hPa | 0 mm | - | 0 W/m² | - |
| 1777520047 | 21.67° C | 30% | 1121.4 hPa | 0 mm | - | 0 W/m² | - |
| 1777519744 | 22.22° C | 28% | 1121.2 hPa | 0 mm | - | 0 W/m² | - |
| 1777519441 | 22.78° C | 28% | 1121.1 hPa | 0 mm | - | 0 W/m² | - |
| 1777519138 | 22.78° C | 27% | 1121.2 hPa | 0 mm | - | 0 W/m² | - |
| 1777518833 | 22.78° C | 27% | 1121.1 hPa | 0 mm | - | 0 W/m² | - |
| 1777518530 | 22.78° C | 27% | 1121 hPa | 0 mm | - | 0 W/m² | - |
* Rain latest hour (hover to see other rain measurements)
** Current wind speed in m/s (hover to see current wind gust speed)